• Processing (Info)

  • MPEC 2014-X03 : 2014 WP365

    The following Minor Planet Electronic Circular may be linked-to from your own Web pages, but must not otherwise be redistributed electronically.

    A form allowing access to any MPEC is at the bottom of this page.


    Read MPEC 2014-X02 Read MPEC 2014-X04


    M.P.E.C. 2014-X03                                Issued 2014 Dec. 1, 20:01 UT
    
         The Minor Planet Electronic Circulars contain information on unusual
             minor planets and routine data on comets.  They are published
       on behalf of Commission 20 of the International Astronomical Union by the
              Minor Planet Center, Smithsonian Astrophysical Observatory,
                              Cambridge, MA 02138, U.S.A.
    
                 Prepared using the Tamkin Foundation Computer Network
    
                                  MPC@CFA.HARVARD.EDU
                URL https://www.minorplanetcenter.net/    ISSN 1523-6714
    
                                      2014 WP365
    
    Observations:
         K14Wa5P* C2014 11 23.52325 07 01 28.273-24 28 43.11         21.1 wLEX003F51
         K14Wa5P  C2014 11 23.53397 07 01 28.555-24 29 18.56         21.1 wLEX003F51
         K14Wa5P  C2014 11 23.54465 07 01 28.825-24 29 53.88         21.3 wLEX003F51
         K14Wa5P _C2014 11 24.63457907 02 01.901-25 29 49.42         21.4 RtEX003568
         K14Wa5P _C2014 11 24.63583307 02 01.934-25 29 53.42         21.3 RtEX003568
         K14Wa5P _C2014 11 24.63708807 02 01.963-25 29 57.57         21.2 RtEX003568
         K14Wa5P |C2014 11 26.24493 07 02 47.27 -26 58 07.3          21.0 VuEX003807
         K14Wa5P |C2014 11 26.25189 07 02 47.40 -26 58 30.1          20.9 VuEX003807
         K14Wa5P |C2014 11 26.25911 07 02 47.53 -26 58 54.2          21.4 VuEX003807
         K14Wa5P |C2014 11 30.28395 07 04 09.59 -30 38 34.8          21.4 VuEX003807
         K14Wa5P |C2014 11 30.28828 07 04 09.66 -30 38 49.2          21.5 VuEX003807
         K14Wa5P |C2014 11 30.29318 07 04 09.69 -30 39 05.0          21.3 VuEX003807
    
    Observer details:
    568 Mauna Kea.  Observers R. J. Wainscoat, D. Woodworth.  Measurers M. Micheli,
        R. J. Wainscoat.  3.6-m Canada-France-Hawaii Telescope + CCD.
    807 Cerro Tololo.  Observers T. Linder, R. Holmes.  0.41-m f/11
        Ritchey-Chretien + CCD.
    F51 Pan-STARRS 1, Haleakala.  Observers B. Gibson, T. Goggia, N. Primak,
        A. Schultz, M. Willman.  Measurers B. Bolin, K. Chambers, S. Chastel,
        L. Denneau, H. Flewelling, M. Huber, E. Magnier, E. Schunova, R. Wainscoat,
        C. Waters.  1.8-m Ritchey-Chretien + CCD.
    
    Orbital elements:
    2014 WP365                                               Earth MOID = 0.1119 AU
    Epoch 2014 Dec. 9.0 TT = JDT 2457000.5                  MPC
    M 301.53530              (2000.0)            P               Q
    n   0.59680039     Peri.  319.45180     -0.95447982     -0.17589746
    a   1.3971724      Node   212.90008     +0.18484691     -0.98265456
    e   0.2350187      Incl.   26.32651     -0.23409379     -0.05873748
    P   1.65           H   20.3           G   0.15           U   7
    Residuals in seconds of arc
    141123 F51  0.0   0.0     141124 568  0.0   0.1+    141126 807  0.1-  0.1-
    141123 F51  0.1+  0.0     141124 568  0.0   0.1+    141130 807  0.2-  0.2+
    141123 F51  0.0   0.0     141126 807  0.1+  0.1-    141130 807  0.2+  0.1-
    141124 568  0.1-  0.0     141126 807  0.0   0.1+    141130 807  0.0   0.0
    
    Ephemeris:
    2014 WP365               a,e,i = 1.40, 0.24, 26                  q = 1.0688
    Date    TT    R. A. (2000) Decl.     Delta      r     Elong.  Phase     V
    2014 11 01    06 40 14.0 -05 06 31   0.6982  1.4233   113.5    39.8    21.9
    ...
    2014 11 16    06 56 18.5 -17 38 25   0.6077  1.3721   116.4    40.2    21.5
    ...
    2014 11 24    07 01 43.2 -24 54 43   0.5747  1.3442   116.2    41.2    21.4
    ...
    2014 11 30    07 04 05.0 -30 23 09   0.5568  1.3231   115.2    42.4    21.3
    2014 12 01    07 04 19.8 -31 17 15   0.5543  1.3195   115.0    42.7    21.3
    2014 12 02    07 04 31.9 -32 11 02   0.5520  1.3160   114.7    42.9    21.3
    ...
    2014 12 08    07 04 48.3 -37 25 26   0.5408  1.2949   112.9    44.5    21.2
    ...
    2014 12 16    07 02 32.7 -43 52 25   0.5319  1.2670   109.7    47.0    21.2
    ...
    2014 12 31    06 50 18.4 -53 36 44   0.5255  1.2163   103.2    51.9    21.2
    
    A. U. Tomatic                (C) Copyright 2014 MPC           M.P.E.C. 2014-X03
    

    Read MPEC 2014-X02 Read MPEC 2014-X04


    MPEC number:

    Enter an MPEC number in one of the following forms:

    • 1997-B01 (the full form)
    • J97B01 (the packed version of the full form)
    • B01 (the abbreviated form)